Tracking 19794 objects as of 22-Jul-2019
HD Live streaming from Space Station
objects crossing your sky now

COSMOS 1275 DEB

Track COSMOS 1275 DEB now!
10-day predictions


NORAD ID: 42161
Int'l Code: 1981-053RZ
Perigee: 890.1 km
Apogee: 977.5 km
Inclination: 82.9 °
Period: 103.6 minutes
Semi major axis: 7304 km
RCS: Unknown
Launch date: June 4, 1981
Source: Commonwealth of Independent States (former USSR) (CIS)
Launch site: PLESETSK MISSILE AND SPACE COMPLEX (PKMTR)

Note: This is SATELLITE DEBRIS
aabbcc
Your satellite tracking list
Your tracking list is empty




NASA's NSSDC Master Catalog

Two Line Element Set (TLE):
1 42161U 81053RZ  19197.39112653  .00000058  00000-0  32686-4 0  9990
2 42161  82.9290 220.6696 0059842  93.3897 330.4039 13.90553262788500
Source of the keplerian elements: AFSPC